This is the latest recevied weather packets stored in our database for station/object IW4DZV-13. If no packets are shown the sender has not sent any weather packets the latest 10 day(s).
| Time | Temp. | Humidity | Pressure | Rain* | Wind** | Luminosity | Snow |
|---|---|---|---|---|---|---|---|
| 1787466602 | 22.22° C | 71% | 1017.3 hPa | 0.25 mm | - | 171 W/m² | - |
| 1787465759 | 21.67° C | 73% | 1017 hPa | 0.25 mm | - | 183 W/m² | - |
| 1787464857 | 20.56° C | 75% | 1017 hPa | 0.25 mm | - | 204 W/m² | - |
| 1787463954 | 20° C | 77% | 1016.8 hPa | 0.25 mm | - | 132 W/m² | - |
| 1787463055 | 19.44° C | 77% | 1016.8 hPa | 0.25 mm | - | 54 W/m² | - |
| 1787462155 | 19.44° C | 78% | 1016.7 hPa | 0.25 mm | - | 26 W/m² | - |
| 1787461249 | 19.44° C | 78% | 1016.6 hPa | 0.25 mm | - | 25 W/m² | - |
| 1787460345 | 19.44° C | 79% | 1016.5 hPa | 0.25 mm | - | 14 W/m² | - |
| 1787459449 | 19.44° C | 79% | 1016.3 hPa | 0.25 mm | - | 0 W/m² | - |
| 1787458542 | 19.44° C | 79% | 1016.1 hPa | 0.25 mm | - | 0 W/m² | - |
| 1787457644 | 19.44° C | 79% | 1016.2 hPa | 0.25 mm | - | 0 W/m² | - |
| 1787456741 | 19.44° C | 79% | 1016.3 hPa | 0.25 mm | - | 0 W/m² | - |
| 1787455840 | 19.44° C | 79% | 1016.2 hPa | 0.25 mm | - | 0 W/m² | - |
| 1787454939 | 19.44° C | 79% | 1016.1 hPa | 0.25 mm | - | 0 W/m² | - |
| 1787454038 | 19.44° C | 79% | 1016.1 hPa | 0.25 mm | - | 0 W/m² | - |
| 1787453137 | 20° C | 79% | 1016 hPa | 0.25 mm | - | 0 W/m² | - |
| 1787452237 | 20° C | 79% | 1016 hPa | 0.25 mm | - | 0 W/m² | - |
| 1787451335 | 20° C | 79% | 1015.8 hPa | 0.25 mm | - | 0 W/m² | - |
| 1787450432 | 20° C | 79% | 1015.7 hPa | 0.25 mm | - | 0 W/m² | - |
| 1787449535 | 20° C | 79% | 1015.6 hPa | 0.25 mm | - | 0 W/m² | - |
| 1787448640 | 20.56° C | 79% | 1015.7 hPa | 0.25 mm | - | 0 W/m² | - |
| 1787447729 | 20.56° C | 80% | 1015.4 hPa | 0.25 mm | - | 0 W/m² | - |
| 1787446827 | 20.56° C | 81% | 1015.2 hPa | 0.25 mm | - | 0 W/m² | - |
| 1787445927 | 21.11° C | 82% | 1015.2 hPa | 0.25 mm | - | 0 W/m² | - |
| 1787445050 | 21.11° C | 83% | 1015.3 hPa | 0.25 mm | - | 0 W/m² | - |
* Rain since midnight (hover to see other rain measurements)
** Current wind speed in m/s (hover to see current wind gust speed)